Location: Vesunti
(61.5000°N, 22.8333°E)
Time: 14:10:59
(UTC+00:00)

Cosmos 1605 Rocket - Pass Details

Date: 17 February 2020
Orbit: 944 x 1007 km, 82.9° (Epoch: 07 April)

Event Time Altitude Azimuth Distance (km) Brightness Sun altitude
Rises 04:00:15 0° 346° (NNW) 3,720 6.9 -15.8°
Reaches altitude 10° 04:02:59 10° 338° (NNW) 2,758 6.2 -15.4°
Maximum altitude 04:08:36 35° 275° (W) 1,519 4.5 -14.8°
Drops below altitude 10° 04:14:07 10° 212° (SSW) 2,704 6.0 -14.1°
Sets 04:16:47 0° 204° (SSW) 3,637 6.8 -13.8°
